Regional Weather Roundup
Issued by NWS

Home | Current Version | Previous Version | Text Only | Print | Product List | Glossary Off
Versions: 1 2 3 4 5 6 7 8 9 10 11 12 13 14 15 16 17 18 19 20 21 22 23 24 25 26 27 28 29 30 31 32 33 34 35 36 37 38 39 40 41 42 43 44 45 46 47 48 49 50

000
ASUS43 KIND 301359
RWRIN

WEATHER ROUNDUP FOR INDIANA
NATIONAL WEATHER SERVICE INDIANAPOLIS IN
1000 AM EDT THU MAR 30 2017

NOTE: "FAIR" INDICATES FEW OR NO CLOUDS BELOW 12,000 FEET WITH NO
SIGNIFICANT WEATHER AND/OR OBSTRUCTIONS TO VISIBILITY.

* - STATION DOES NOT REPORT WEATHER SUCH AS PRECIPITATION OR FOG.

+ - STATION NOT QUALITY CONTROLLED BY THE NATIONAL WEATHER SERVICE.
    USE DATA WITH CAUTION...ESPECIALLY DEWPOINT AND RELATIVE
    HUMIDITY OBSERVATIONS.

INZ001>003-010>013-019-020-301500-
NORTHWEST INDIANA

CITY           SKY/WX    TMP DP  RH WIND       PRES   REMARKS
GARY /AIRPORT/ PTSUNNY   45  41  87 E17G32    29.75F
KNOX *+        CLOUDY    41  28  60 E21G28    29.75F
MONTICELLO +   LGT RAIN  43  40  90 E13G18    29.77R

$$

LMZ046-743>745-301500-
SOUTHERN LAKE MICHIGAN

STATION/POSITION TIME  TEMP    WIND        PRES    WAVE
                       AIR SEA DIR/SP/G            HT
                 (UTC) (F)     (DEG/KT/KT) (MB)    (FT)
BURNS HARBOR     1340   43     100/ 13/ 22 1007.8F
MICHIGAN CITY    1330   42      80/ 19/ 25   N/A

$$

INZ004-005-014>016-021>024-301500-
NORTH CENTRAL INDIANA

CITY           SKY/WX    TMP DP  RH WIND       PRES   REMARKS
ELKHART        LGT RAIN  41  37  87 E17G23    29.83F FOG
GOSHEN         LGT RAIN  41  37  86 E22G29    29.82F
SOUTH BEND     CLOUDY    41  32  70 E18G26    29.79F

$$

INZ006>009-017-018-025>027-301500-
NORTHEAST INDIANA

CITY           SKY/WX    TMP DP  RH WIND       PRES   REMARKS
ANGOLA *+      CLOUDY    37  34  87 E12       29.91F
FORT WAYNE     CLOUDY    43  39  86 NE20G26   29.86F
KENDALLVILLE + LGT RAIN  39  38  96 E14G21    29.89F

$$

INZ028-029-035-036-043>045-051>053-301500-
WEST CENTRAL INDIANA

CITY           SKY/WX    TMP DP  RH WIND       PRES   REMARKS
CRAWFORDSVL +  CLOUDY    50  50 100 E8        29.72F
GREENCASTLE +  PTSUNNY   54  50  87 SE8       29.72F
LAFAYETTE      TSTM      45  43  93 E14       29.74S FOG
TERRE HAUTE    CLOUDY    57  51  80 E8        29.68F

$$

INZ030>032-037>040-046>048-054>057-064-065-301500-
CENTRAL INDIANA

CITY           SKY/WX    TMP DP  RH WIND       PRES   REMARKS
ANDERSON       CLOUDY    48  45  87 NE12      29.80R
CP ATTERBURY + CLOUDY    55  48  76 SE5       29.75F
COLUMBUS       MOSUNNY   55  54  94 SE6       29.76F
GREENWOOD *+   CLOUDY    55  49  80 E7        29.77S
INDIANAPOLIS   CLOUDY    55  48  77 E10       29.75F
-EAGLE CREEK   CLOUDY    56  47  71 SE10      29.75F
KOKOMO +       CLOUDY    44  41  89 E17       29.79F
SHELBYVILLE    CLOUDY    58  48  69 SE10      29.76F

$$

INZ033-034-041-042-049-050-058-059-301500-
EAST CENTRAL INDIANA

CITY           SKY/WX    TMP DP  RH WIND       PRES   REMARKS
MUNCIE         LGT RAIN  48  42  80 NE13      29.81F
RICHMOND +     PTSUNNY   50  43  76 SE13      29.81F

$$

INZ060-061-067>069-081>083-085>088-301500-
SOUTHWEST INDIANA

CITY           SKY/WX    TMP DP  RH WIND       PRES   REMARKS
EVANSVILLE     CLOUDY    67  57  70 S10       29.68F
HUNTINGBURG *+ CLOUDY    65  58  78 SE8       29.68F

$$

INZ062-063-066-070>080-084-089>092-301500-
SOUTH CENTRAL AND SOUTHEAST INDIANA

CITY           SKY/WX    TMP DP  RH WIND       PRES   REMARKS
BLOOMINGTON    MOSUNNY   59  49  69 SE10      29.72F
MADISON *+     CLOUDY    57  52  82 SE3       29.80F
SEYMOUR +      CLOUDY    57  52  82 SE8       29.75F

$$




USA.gov is the U.S. government's official web portal to all federal, state and local government web resources and services.